• MPC Preparation (Info)

  • MPEC 1995-G07 : 1995 GJ

    The following Minor Planet Electronic Circular may be linked-to from your own Web pages, but must not otherwise be redistributed electronically.

    A form allowing access to any MPEC is at the bottom of this page.


    Read MPEC 1995-G06 Read MPEC 1995-G08


    M.P.E.C. 1995-G07                                Issued 1995 Apr. 7, 14:51 UT
    
         The Minor Planet Electronic Circulars contain information on unusual
             minor planets and routine data on comets.  They are published
       on behalf of Commission 20 of the International Astronomical Union by the
              Minor Planet Center, Smithsonian Astrophysical Observatory,
                              Cambridge, MA 02138, U.S.A.
    
                 BMARSDEN@CFA.HARVARD.EDU or GWILLIAMS@CFA.HARVARD.EDU
    
                                        1995 GJ
    
    Observations:
         J95G00J* C1995 04 03.2417  10 39 49.23 +08 19 39.5          22.5 R      568
         J95G00J  C1995 04 03.2708  10 39 49.11 +08 19 40.0                      568
         J95G00J  C1995 04 03.3043  10 39 48.97 +08 19 40.7                      568
         J95G00J  C1995 04 04.2678  10 39 45.07 +08 19 57.8                      568
         J95G00J  C1995 04 04.2731  10 39 45.04 +08 19 57.9                      568
         J95G00J  C1995 04 04.2778  10 39 45.03 +08 19 58.0                      568
    
    Observer details:
    568 Mauna Kea.  Observers D. Jewitt, J. Chen.  2.2-m University of Hawaii
        telescope.
    
    Orbital elements:
    1995 GJ
    Eccentricity assumed
    Epoch 1995 Mar. 24.0 TT = JDT 2449800.5                 Marsden
    M 359.96486              (2000.0)            P               Q
    n   0.00350678     Peri.  180.29088     -0.93480415     -0.32637395
    a  42.9072318      Node   338.92892     +0.32663802     -0.63516928
    e   0.0909134      Incl.   22.93041     +0.13945900     -0.70002859
    P 281.06           H     7.0          G   0.15
    From 6 observations 1995 Apr. 3-4.
    
    Ephemeris:
    1995 GJ                  a,e,i = 42.91, 0.09, 23                 q = 39.006
    Date    TT    R. A. (2000) Decl.     Delta      r     Elong.  Phase     V
    1995 04 03    10 39.84   +08 19.6   38.178   39.006   145.5     0.8    23.0
    1995 04 13    10 39.21   +08 22.3   38.285   39.006   135.5     1.0    23.0
    1995 04 23    10 38.69   +08 24.3   38.412   39.006   125.6     1.2    23.1
    1995 05 03    10 38.32   +08 25.5   38.557   39.006   115.8     1.3    23.1
    1995 05 13    10 38.09   +08 25.8   38.715   39.006   106.1     1.4    23.1
    1995 05 23    10 38.02   +08 25.2   38.880   39.006    96.4     1.5    23.1
    1995 06 02    10 38.11   +08 23.7   39.049   39.006    86.9     1.5    23.1
    1995 06 12    10 38.35   +08 21.3   39.216   39.006    77.4     1.5    23.1
    1995 06 22    10 38.74   +08 17.9   39.377   39.006    67.9     1.4    23.1
    
    Brian G. Marsden                                              M.P.E.C. 1995-G07
    

    Read MPEC 1995-G06 Read MPEC 1995-G08


    MPEC number:

    Enter an MPEC number in one of the following forms:

    • 1997-B01 (the full form)
    • J97B01 (the packed version of the full form)
    • B01 (the abbreviated form)